Home   Weather   Namsos   Past weeks

Flag for Norway Past Weather in Namsos, Norway — Yesterday and Last 2 Weeks

Now
46 °F

Partly cloudy.


Feels Like: 37 °F
Forecast: 33 / 41 °F
Wind: 29 mph from West

Location: Namsos Lufthavn

Current Time: Jan 18, 2017 at 7:29:30 pm

Latest Report: Jan 18, 2017 at 6:50 pm


Visibility: N/A

Pressure: 29.86 "Hg

Humidity: 66%

Dew Point: 36 °F

Location of NamsosLocation

Past Weather in Namsos — Graph

°F

Namsos Temperature Yesterday

Maximum temperature yesterday: 37 °F (at 10:50 am)
Minimum temperature yesterday: 34 °F (at 5:50 am)
Average temperature yesterday: 36 °F

High & Low Weather Summary for the Past Weeks

 TemperatureHumidityPressure
High46 °F (Jan 18, 3:50 pm)100% (Jan 6, 5:50 pm)30.48 "Hg (Jan 6, 5:50 pm)
Low7 °F (Jan 4, 9:20 pm)59% (Jan 6, 9:20 am)28.59 "Hg (Jan 11, 7:50 pm)
Average31 °F88%29.66 "Hg
* Reported Jan 3 6:20 pm — Jan 18 6:20 pm, Namsos, Weather by CustomWeather, © 2017

Note: Actual official high and low records may vary slightly from our data, if they occured in-between our weather recording intervals... More about our weather records

Advertising

Namsos Weather History for the Previous 24 Hours

Scroll right to see more
 ConditionsComfort  
Time TempWeatherWind HumidityBarometerVisibility
6:20 pm
Wed, Jan 18
46 °FPartly cloudy.28 mph71%29.83 "HgN/A
5:50 pm46 °FPartly cloudy.25 mph76%29.83 "HgN/A
5:20 pm46 °FLight rain. Partly cloudy.31 mph82%29.80 "HgN/A
4:50 pm46 °FLight rain. Partly cloudy.31 mph76%29.80 "HgN/A
4:20 pm46 °FLight rain. Partly cloudy.26 mph87%29.80 "HgN/A
3:50 pm46 °FLight rain. Partly cloudy.22 mph82%29.80 "HgN/A
3:20 pm45 °FPartly cloudy.13 mph87%29.83 "HgN/A
2:50 pm45 °FBroken clouds.13 mph87%29.83 "HgN/A
2:20 pm45 °FLight rain. Broken clouds.16 mph87%29.86 "HgN/A
1:50 pm43 °FLight rain. Broken clouds.14 mph93%29.86 "HgN/A
1:20 pm43 °FLight rain. Broken clouds.14 mph93%29.86 "HgN/A
12:50 pm43 °FLight rain. Partly sunny.14 mph93%29.89 "HgN/A
12:20 pm43 °FLight rain. Partly sunny.16 mph87%29.89 "HgN/A
11:50 am43 °FLight rain. Partly sunny.15 mph87%29.89 "HgN/A
11:20 am43 °FLight rain. Broken clouds.14 mph87%29.92 "HgN/A
10:20 am43 °FLight rain. Broken clouds.15 mph93%29.92 "HgN/A
9:20 am43 °FLight rain. Partly cloudy.15 mph87%29.95 "HgN/A
8:50 am43 °FLight rain. Partly cloudy.13 mph87%29.95 "HgN/A
8:20 am43 °FLight rain. Partly cloudy.13 mph87%29.95 "HgN/A
7:50 am43 °FLight rain. Partly cloudy.13 mph87%29.95 "HgN/A
7:20 am43 °FLight rain. Partly cloudy.15 mph87%29.98 "HgN/A
6:50 am43 °FLight rain. Partly cloudy.15 mph87%29.98 "HgN/A
6:20 am43 °FLight rain. Partly cloudy.14 mph87%29.98 "HgN/A
9:50 pm
Tue, Jan 17
37 °FPassing clouds.2 mph93%30.18 "HgN/A
9:20 pm37 °FPartly cloudy.7 mph93%30.18 "HgN/A
8:50 pm37 °FPartly cloudy.8 mph100%30.18 "HgN/A
8:20 pm37 °FPassing clouds.6 mph93%30.18 "Hg5 mi
7:50 pm37 °FPartly cloudy.7 mph93%30.18 "Hg5 mi
7:20 pm37 °FPartly cloudy.8 mph100%30.18 "Hg5 mi
Weather by CustomWeather, © 2017

See weather overviewHow to use our weather pages